GW5673 Weather Reports


Display with metric or nautical units.
time (UTC)temp
F
wind
direction
speed
MPH
gust
MPH
rain 1hr
in
rain 24hr
in
rain mn
in
humidity
%
barometer
mb
20260507210902 64 169 4.0 10.0 0.00 0.13 0.01 66 1007.0
20260507210002 64 176 3.0 7.0 0.00 0.13 0.01 65 1006.9
20260507205403 64 176 4.0 9.0 0.00 0.13 0.01 62 1007.0
20260507204502 65 176 3.0 8.0 0.00 0.13 0.01 61 1007.1
20260507203602 64 156 4.0 9.0 0.00 0.13 0.01 62 1007.1
20260507202702 64 172 4.0 9.0 0.00 0.13 0.01 62 1007.1
20260507201823 64 193 3.0 9.0 0.00 0.13 0.01 62 1007.2
20260507200903 64 186 4.0 8.0 0.00 0.13 0.01 64 1007.3
20260507200002 64 195 3.0 8.0 0.00 0.13 0.01 62 1007.4
20260507195402 64 195 2.0 6.0 0.00 0.13 0.01 62 1007.5
20260507194502 64 177 3.0 6.0 0.00 0.13 0.01 62 1007.4
20260507193602 63 169 4.0 8.0 0.00 0.13 0.01 60 1007.7
20260507192703 63 80 2.0 5.0 0.00 0.13 0.01 62 1007.9
20260507191802 62 64 1.0 3.0 0.00 0.13 0.01 62 1007.9
20260507190902 61 144 1.0 4.0 0.00 0.13 0.01 64 1008.1
20260507190024 61 347 2.0 4.0 0.00 0.13 0.01 64 1008.2
20260507185402 60 336 2.0 5.0 0.00 0.13 0.01 63 1008.3
20260507184503 61 162 3.0 10.0 0.00 0.13 0.01 63 1008.4
20260507183602 61 117 2.0 8.0 0.00 0.13 0.01 63 1008.3
20260507182703 61 94 4.0 8.0 0.00 0.13 0.01 66 1008.4
20260507181802 61 162 3.0 8.0 0.00 0.13 0.01 64 1008.6
20260507180903 60 216 3.0 7.0 0.00 0.13 0.01 67 1008.7
20260507180003 60 214 2.0 6.0 0.00 0.13 0.01 65 1008.9
20260507175402 59 190 2.0 6.0 0.00 0.13 0.01 68 1009.0
20260507174524 59 175 2.0 7.0 0.00 0.13 0.01 70 1009.0
20260507173602 58 200 3.0 6.0 0.00 0.13 0.01 68 1009.3
20260507172703 59 157 3.0 8.0 0.00 0.13 0.01 67 1009.4
20260507171802 59 121 2.0 4.0 0.00 0.13 0.01 68 1009.5
20260507170923 58 124 2.0 5.0 0.00 0.13 0.01 67 1009.6
20260507170002 58 117 2.0 6.0 0.00 0.13 0.01 69 1009.8
20260507165403 58 75 2.0 6.0 0.00 0.13 0.01 68 1010.1
20260507164523 57 120 2.0 7.0 0.00 0.13 0.01 76 1010.1
20260507163603 56 97 3.0 7.0 0.00 0.13 0.01 71 1010.4
20260507162702 55 84 3.0 7.0 0.00 0.13 0.01 73 1010.5
20260507161802 55 70 3.0 7.0 0.00 0.13 0.01 73 1010.6
20260507160902 55 46 3.0 5.0 0.00 0.13 0.01 74 1010.9
20260507160003 55 356 2.0 5.0 0.00 0.13 0.01 75 1011.3
20260507155403 54 356 3.0 6.0 0.00 0.13 0.01 75 1011.1
20260507154503 54 337 3.0 5.0 0.00 0.13 0.01 76 1011.0
20260507153623 54 357 3.0 6.0 0.00 0.13 0.01 78 1011.3
20260507152702 54 350 4.0 8.0 0.00 0.13 0.01 75 1011.2
20260507151802 54 1 4.0 8.0 0.00 0.13 0.01 79 1011.2
20260507150903 54 350 4.0 8.0 0.00 0.13 0.01 80 1011.1
20260507150003 53 356 4.0 8.0 0.00 0.13 0.01 80 1011.4
20260507145424 53 11 3.0 6.0 0.00 0.13 0.01 80 1011.5
20260507144503 53 2 3.0 7.0 0.00 0.13 0.01 81 1011.4
20260507143603 53 2 4.0 8.0 0.00 0.13 0.01 81 1011.5
20260507142702 52 11 5.0 11.0 0.00 0.13 0.01 81 1011.7
20260507141802 52 17 6.0 11.0 0.00 0.13 0.01 82 1011.9
20260507140923 52 24 6.0 10.0 0.00 0.13 0.01 82 1011.8
20260507140003 53 14 5.0 10.0 0.00 0.13 0.01 84 1011.8
20260507135403 53 11 5.0 9.0 0.00 0.13 0.01 85 1011.9
20260507134502 53 1 6.0 10.0 0.00 0.13 0.01 85 1011.8
20260507133603 53 356 5.0 11.0 0.00 0.13 0.01 87 1011.8
20260507132702 53 354 6.0 9.0 0.00 0.13 0.01 86 1011.8
20260507131803 53 357 5.0 9.0 0.00 0.14 0.01 87 1011.8
20260507130903 53 340 5.0 8.0 0.00 0.14 0.01 87 1012.0
20260507130002 53 339 5.0 9.0 0.00 0.14 0.01 88 1011.9
20260507125403 53 337 4.0 8.0 0.00 0.15 0.01 87 1012.0
20260507124503 53 333 4.0 6.0 0.00 0.16 0.01 88 1011.8
20260507123603 53 339 3.0 4.0 0.00 0.17 0.01 88 1012.1
20260507122702 53 336 3.0 8.0 0.00 0.18 0.01 89 1012.0
20260507121802 53 333 4.0 6.0 0.00 0.18 0.01 90 1011.8
20260507120903 53 344 4.0 9.0 0.00 0.18 0.01 90 1011.6
20260507120003 53 345 4.0 9.0 0.00 0.19 0.01 89 1011.5
20260507115403 53 345 4.0 10.0 0.00 0.19 0.01 89 1011.5
20260507114503 53 346 3.0 6.0 0.00 0.20 0.01 88 1011.5
20260507113603 52 336 3.0 5.0 0.00 0.20 0.01 88 1011.5
20260507112723 52 335 3.0 5.0 0.00 0.20 0.01 89 1011.4
20260507111803 52 350 2.0 4.0 0.00 0.20 0.01 89 1011.5
20260507110903 52 13 2.0 5.0 0.00 0.20 0.01 89 1011.3
20260507110003 52 6 1.0 4.0 0.00 0.20 0.01 89 1011.2
20260507105425 52 358 2.0 4.0 0.00 0.21 0.01 89 1011.0
20260507104504 52 359 3.0 5.0 0.00 0.21 0.01 89 1010.9
20260507103623 52 359 3.0 4.0 0.00 0.21 0.01 89 1010.9
20260507102703 52 357 2.0 3.0 0.00 0.21 0.01 89 1010.8
20260507101824 52 344 2.0 3.0 0.00 0.21 0.01 89 1011.0
20260507100903 52 351 1.0 4.0 0.00 0.21 0.01 90 1011.1
20260507100024 52 353 3.0 5.0 0.00 0.21 0.01 90 1010.8
20260507095403 52 354 2.0 5.0 0.00 0.21 0.01 90 1010.8
20260507094503 52 342 2.0 5.0 0.00 0.21 0.01 91 1011.0
20260507093602 53 359 3.0 5.0 0.00 0.21 0.01 91 1010.4
20260507092724 53 20 2.0 4.0 0.00 0.21 0.01 91 1010.4
20260507091802 52 16 2.0 4.0 0.00 0.21 0.01 91 1010.7
20260507090902 52 17 2.0 4.0 0.00 0.21 0.01 91 1010.6
20260507090003 52 345 3.0 5.0 0.00 0.21 0.01 91 1010.7
20260507085403 52 345 3.0 6.0 0.00 0.21 0.01 91 1010.3
20260507084502 53 342 3.0 5.0 0.00 0.21 0.01 91 1010.4
20260507083623 53 350 4.0 8.0 0.00 0.21 0.01 90 1010.1
20260507082702 53 353 6.0 9.0 0.00 0.21 0.01 90 1010.3
20260507081803 53 350 5.0 9.0 0.00 0.21 0.01 90 1010.3
20260507080903 53 344 6.0 11.0 0.00 0.21 0.01 90 1010.6
20260507080003 53 344 5.0 9.0 0.00 0.21 0.01 90 1010.5
20260507075403 54 337 6.0 11.0 0.00 0.21 0.01 90 1010.4
20260507074524 54 337 7.0 11.0 0.00 0.21 0.01 90 1010.5
20260507073602 54 339 6.0 12.0 0.00 0.21 0.01 91 1010.4
20260507072703 54 330 6.0 11.0 0.00 0.21 0.01 91 1010.1
20260507071805 54 351 6.0 9.0 0.00 0.21 0.01 91 1009.8
20260507070903 54 337 7.0 12.0 0.00 0.21 0.01 91 1010.0
20260507070006 55 334 8.0 13.0 0.00 0.21 0.01 91 1010.0
20260507065404 55 339 7.0 11.0 0.00 0.21 0.01 92 1009.8
20260507064503 55 338 6.0 11.0 0.00 0.21 0.01 92 1009.8
20260507063603 55 328 6.0 11.0 0.00 0.21 0.01 92 1010.1
20260507062703 55 327 7.0 12.0 0.00 0.21 0.01 92 1010.0
20260507061802 55 336 8.0 12.0 0.00 0.21 0.01 92 1009.7
20260507060924 56 335 7.0 11.0 0.00 0.21 0.01 92 1009.7
20260507060003 56 337 7.0 13.0 0.00 0.21 0.01 91 1010.1
20260507055402 56 336 8.0 13.0 0.00 0.21 0.01 92 1010.1
20260507054503 56 329 8.0 13.0 0.01 0.21 0.01 92 1010.0
20260507053624 56 339 8.0 14.0 0.01 0.21 0.01 92 1010.3
20260507052724 56 348 9.0 14.0 0.01 0.21 0.01 92 1009.7
20260507051803 57 348 9.0 13.0 0.01 0.21 0.01 92 1009.7
20260507050924 57 333 9.0 13.0 0.01 0.21 0.01 92 1009.7
20260507050024 57 334 8.0 13.0 0.01 0.21 0.01 93 1009.4
20260507045403 57 328 8.0 15.0 0.02 0.21 0.01 93 1009.2
20260507044503 57 322 8.0 14.0 0.08 0.20 0.00 94 1009.0
20260507043602 58 300 3.0 9.0 0.09 0.20 0.00 94 1008.9
20260507042724 58 292 4.0 7.0 0.09 0.20 0.00 93 1008.8
20260507041823 58 321 4.0 11.0 0.09 0.20 0.00 93 1009.0
20260507040903 58 331 9.0 14.0 0.09 0.20 0.00 93 1009.5
20260507040003 59 344 7.0 15.0 0.12 0.20 0.00 93 1009.8
20260507035403 59 323 8.0 15.0 0.11 0.19 0.19 93 1009.9
20260507034503 60 317 8.0 13.0 0.04 0.12 0.12 93 1010.0
20260507033603 60 316 8.0 12.0 0.03 0.11 0.11 93 1009.6
20260507032703 60 329 5.0 10.0 0.03 0.11 0.11 92 1009.5
20260507031803 61 341 7.0 13.0 0.03 0.11 0.11 92 1009.5
20260507030903 62 354 7.0 11.0 0.03 0.11 0.11 91 1009.4
20260507030003 63 345 7.0 13.0 0.00 0.08 0.08 90 1009.3
20260507025403 63 336 5.0 11.0 0.00 0.08 0.08 91 1009.3
20260507024503 63 318 4.0 8.0 0.00 0.08 0.08 91 1009.2
20260507023603 63 303 3.0 6.0 0.00 0.08 0.08 90 1009.2
20260507022703 63 334 3.0 9.0 0.00 0.08 0.08 89 1008.9
20260507021803 63 346 7.0 13.0 0.00 0.08 0.08 88 1008.6
20260507020903 63 336 8.0 14.0 0.00 0.08 0.08 87 1008.7
20260507020024 63 331 4.0 9.0 0.00 0.08 0.08 89 1008.6
20260507015403 63 322 3.0 5.0 0.00 0.08 0.08 90 1008.5
20260507014502 63 306 3.0 6.0 0.00 0.08 0.08 90 1008.6
20260507013603 64 328 3.0 5.0 0.00 0.08 0.08 88 1008.4
20260507012703 64 352 3.0 5.0 0.00 0.08 0.08 88 1008.0
20260507011802 64 327 2.0 4.0 0.00 0.08 0.08 89 1008.2
20260507010903 64 329 3.0 7.0 0.00 0.08 0.08 89 1008.5
20260507010024 65 340 5.0 9.0 0.00 0.08 0.08 88 1008.5
20260507005403 65 359 6.0 10.0 0.00 0.08 0.08 88 1008.5
20260507004503 65 354 4.0 9.0 0.00 0.08 0.08 87 1008.5
20260507003603 66 14 5.0 8.0 0.00 0.08 0.08 86 1008.6
20260507002724 67 2 4.0 8.0 0.00 0.08 0.08 84 1008.6
20260507001803 68 320 6.0 10.0 0.00 0.08 0.08 82 1008.3
20260507000903 68 306 7.0 14.0 0.00 0.08 0.08 80 1008.1
20260507000024 70 298 4.0 8.0 0.00 0.08 0.08 80 1007.8
20260506235403 71 246 3.0 6.0 0.00 0.08 0.08 76 1007.6
20260506234502 72 162 2.0 7.0 0.00 0.08 0.08 74 1007.3
20260506233603 72 158 2.0 7.0 0.00 0.08 0.08 72 1007.1
20260506232702 72 183 4.0 11.0 0.00 0.08 0.08 72 1007.3
20260506231803 72 191 4.0 11.0 0.00 0.08 0.08 71 1007.5
20260506230924 73 175 5.0 11.0 0.00 0.08 0.08 71 1007.2
20260506230024 73 186 4.0 9.0 0.00 0.08 0.08 71 1007.1
20260506225424 73 183 4.0 9.0 0.00 0.08 0.08 71 1007.1
20260506224503 73 181 5.0 13.0 0.00 0.08 0.08 70 1007.0
20260506223603 73 176 5.0 13.0 0.00 0.08 0.08 70 1006.9
20260506222703 73 177 5.0 14.0 0.00 0.08 0.08 70 1007.0
20260506221803 73 182 6.0 14.0 0.00 0.08 0.08 70 1006.9
20260506220903 74 194 5.0 14.0 0.00 0.08 0.08 68 1006.8
20260506220003 74 187 5.0 14.0 0.00 0.08 0.08 68 1006.7
20260506215424 74 187 5.0 14.0 0.00 0.08 0.08 68 1006.9
20260506214524 74 179 5.0 14.0 0.00 0.08 0.08 68 1006.9
20260506213603 74 199 6.0 16.0 0.00 0.08 0.08 67 1006.8
20260506212703 75 174 5.0 13.0 0.00 0.08 0.08 68 1006.8
20260506211803 75 181 5.0 10.0 0.00 0.08 0.08 67 1006.6